Regional Weather Roundup
Issued by NWS

Home | Current Version | Previous Version | Graphics & Text | Print | Product List | Glossary On
Versions: 1 2 3 4 5 6 7 8 9 10 11 12 13 14 15 16 17 18 19 20 21 22 23 24 25 26 27 28 29 30 31 32 33 34 35 36 37 38 39 40 41 42 43 44 45 46 47 48 49 50
000
ASUS43 KOAX 240110
RWRNE

WEATHER ROUNDUP FOR NEBRASKA
NATIONAL WEATHER SERVICE OMAHA NE
800 PM CDT WED AUG 23 2017

NOTES: SATELLITE DATA IS BEING USED TO AUGMENT CLOUD COVER ABOVE
       12000 FEET.
       "FAIR" INDICATES FEW OR NO CLOUDS BELOW 12,000 FEET WITH NO
       SIGNIFICANT WEATHER AND/OR OBSTRUCTIONS TO VISIBILITY.


NEZ001>004-019>022-054>056-240200-
NEBRASKA PANHANDLE

CITY           SKY/WX    TMP DP  RH WIND       PRES   REMARKS
SCOTTSBLUFF    CLOUDY    79  48  33 SW12      30.02R
ALLIANCE       PTCLDY    78  51  38 NW14G29   30.01R
CHADRON        PTCLDY    85  56  37 S10       29.91F
GORDON         FAIR      82  58  43 CALM      29.96S
KIMBALL        CLOUDY    77  45  32 NW12G18   30.08F
SIDNEY         PTCLDY    82  60  47 S8        30.04R
$$

NEZ057>060-069>072-079>082-240200-
SOUTHWEST NEBRASKA

CITY           SKY/WX    TMP DP  RH WIND       PRES   REMARKS
NORTH PLATTE   CLEAR     78  58  49 SE7       29.99S
IMPERIAL       CLEAR     81  59  47 SE12      29.98F
LEXINGTON      CLEAR     74  55  50 SE7       30.01R
MCCOOK         CLEAR     79  53  40 SE8       30.00S
OGALLALA       CLOUDY    81  63  55 SE7       29.99S
$$

NEZ005>010-023>029-035>040-094-240200-
NORTH CENTRAL NEBRASKA

CITY           SKY/WX    TMP DP  RH WIND       PRES   REMARKS
VALENTINE      PTCLDY    86  58  38 S15       29.91S
AINSWORTH      CLEAR     78  60  54 S10       29.95S
BROKEN BOW     CLEAR     78  52  40 S12       30.00S
O`NEILL        CLEAR     75  59  57 S10       29.97S
ORD            CLEAR     74  55  51 S8        29.98F
THEDFORD       CLEAR     81  59  48 S10       29.99R
$$

NEZ041-046>049-061>064-073>077-083>087-240200-
SOUTH CENTRAL NEBRASKA

CITY           SKY/WX    TMP DP  RH WIND       PRES   REMARKS
GRAND ISLAND   CLEAR     73  59  61 SE8       30.01F
AURORA         CLEAR     71  59  65 S6        30.01F
HASTINGS       CLEAR     75  53  46 SE9       30.03F
HEBRON         CLEAR     74  58  56 S5        30.03S
HOLDREGE       CLEAR     72  56  57 S6        30.02S
KEARNEY        CLEAR     73  59  61 SE9       30.01F
YORK           CLEAR     72  63  73 CALM      30.02F
$$

NEZ011>018-030>034-042>045-240200-
NORTHEAST NEBRASKA

CITY           SKY/WX    TMP DP  RH WIND       PRES   REMARKS
NORFOLK        CLEAR     72  61  68 S9        29.99S
ALBION         CLEAR     72  63  72 S7        30.01S
BLAIR          CLEAR     71  60  67 S6        30.03S
COLUMBUS       CLEAR     71  62  73 SE7       30.02S
FREMONT        CLEAR     73  59  61 SE8       30.02F
TEKAMAH        CLEAR     70  63  78 S6        30.01F
WAYNE          CLEAR     70  64  80 S7        29.99F
$$

NEZ050>053-065>068-078-088>093-240200-
SOUTHEAST NEBRASKA

CITY           SKY/WX    TMP DP  RH WIND       PRES   REMARKS
LINCOLN        CLEAR     74  58  57 SE7       30.02F
OMAHA EPPLEY   CLEAR     76  55  48 S9        30.03S
BEATRICE       CLEAR     76  59  55 SE5       30.03S
FALLS CITY     CLEAR     71  60  68 SE6       30.04F
NEBRASKA CITY  CLEAR     72  58  62 SE7       30.04F
PLATTSMOUTH    CLEAR     71  57  62 SE6       30.04S
$$

NEZ044-045-051>053-067-240200-
OMAHA AREA

CITY           SKY/WX    TMP DP  RH WIND       PRES   REMARKS
OMAHA EPPLEY   CLEAR     76  55  48 S9        30.03S
BLAIR          CLEAR     71  60  67 S6        30.03S
FREMONT        CLEAR     73  59  61 SE8       30.02F
MILLARD        CLEAR     74  61  63 SE6       30.03S
OFFUTT AFB     CLEAR     71  60  67 SE8       30.02F
PLATTSMOUTH    CLEAR     71  57  62 SE6       30.04S
WAHOO          FAIR      70  62  75 SE7       30.02S
$$



USA.gov is the U.S. government's official web portal to all federal, state and local government web resources and services.